Location: Old Broadwell Mill Observatory
(33.8015°N, 85.8137°W)
Time: 11:00:16
(UTC-06:00)

Daily predictions for brighter satellites

Satellite Brightness Start Highest point End
(mag) Time Altitude Azimuth Time Altitude Azimuth Time Altitude Azimuth
SMAP 3.2 16:56:35 10° SSE 17:01:04 51° ENE 17:05:34 10° N
Cosmos 1975 3.3 17:00:28 10° NNW 17:04:29 66° W 17:08:30 10° S
GOES 2 Rocket 4.0 17:00:48 10° WSW 17:04:47 42° S 17:09:18 10° ESE
Meteor 2-4 Rocket 3.8 16:59:59 10° S 17:05:18 55° E 17:10:32 10° NNE
CSL-04 Debris 4.2 17:01:47 10° SSE 17:07:07 67° ENE 17:12:27 10° N
DELTA 2 R/B (1) 4.1 17:09:31 10° WNW 17:14:51 46° N 17:20:00 11° ENE
Meteor 1-13 Rocket 4.3 17:09:46 10° S 17:15:20 88° W 17:21:02 10° N
ALOS 3.5 17:12:05 10° ESE 17:15:24 20° ENE 17:18:45 10° NNE
Cosmos 1025 Rocket 4.2 17:12:24 10° SE 17:15:43 22° E 17:19:01 10° NE
BREEZE-M DEB (TANK) 3.2 17:13:02 10° NNW 17:16:03 47° NE 17:25:16 10° ESE
Cosmos 2369 3.7 17:10:40 10° SSW 17:16:19 88° ESE 17:22:03 10° NNE
Cosmos 2278 3.7 17:11:15 10° SSW 17:16:55 84° ESE 17:22:38 10° NNE
ATLAS 2AS CENTAUR R/B 4.1 17:11:06 10° WSW 17:18:19 42° NW 17:25:56 10° NNE
IRAS Rocket 4.4 17:15:39 10° SSE 17:21:07 82° WSW 17:26:38 10° NNW
Cosmos 1536 Rocket 3.5 17:17:26 10° S 17:21:48 84° E 17:26:09 10° N
METEOR-M 4.4 17:17:33 10° SE 17:22:32 43° ENE 17:27:34 10° N
ATLAS 3B R/B 2.6 17:16:03 10° NNW 17:22:36 61° ENE 17:28:59 10° SE
CZ-4 R/B 1.2 17:20:05 10° SSE 17:23:53 65° ENE 17:27:48 10° N
CSL-04 Rocket 3.9 17:18:31 10° S 17:23:54 76° WSW 17:29:24 10° NNW
Hubble Space Telescope 2.4 17:22:17 10° WSW 17:25:58 31° S 17:29:38 10° SE
Meteor 1-28 Rocket 3.7 17:23:27 10° N 17:27:10 62° WNW 17:30:54 10° SSW
BREEZE-M TANK 4.5 17:22:18 10° SW 17:27:13 86° SE 17:49:14 13° ENE
OAO 1 Rocket 4.5 17:22:44 10° W 17:28:05 79° N 17:32:35 15° E
Cosmos 158 Rocket 3.8 17:23:58 10° N 17:28:59 67° ENE 17:33:51 10° SSE
Cosmos 2084 3.7 17:25:25 10° SSW 17:29:33 49° ESE 17:32:45 15° NE
USA 215 3.2 17:23:51 10° SE 17:30:21 72° NE 17:36:51 10° NW
DELTA 2 R/B (2) 4.2 17:30:52 10° WSW 17:33:26 64° SSE 17:35:43 19° ENE
Cosmos 1697 Rocket 2.7 17:29:07 10° S 17:34:44 71° ESE 17:40:21 10° NNE
Cosmos 468 4.5 17:29:37 10° NNW 17:34:57 80° ENE 17:40:14 10° SSE
Cosmos 1515 3.9 17:32:24 10° SSE 17:36:01 44° E 17:39:39 10° NNE
H-2A R/B 3.1 17:35:51 10° SSW 17:37:19 17° SSE 17:39:07 12° ESE
Cosmos 1743 4.3 17:33:58 10° NNW 17:37:35 38° W 17:41:11 10° SSW
EO 1 Del DPAF 3.5 17:34:01 10° NNE 17:37:43 47° E 17:41:24 10° S
SKYMED 2 3.5 17:35:10 10° NNE 17:39:29 68° ESE 17:43:48 10° S
NOSS 3-4 (A) 3.4 17:33:27 10° SSW 17:39:39 80° ESE 17:45:48 11° NNE
NOSS 3-4 (C) 3.4 17:33:33 10° SSW 17:39:44 79° ESE 17:45:51 11° NNE
Okean 2 3.6 17:40:19 10° SSE 17:44:15 49° E 17:48:05 11° NNE
NOSS 2-2 (D) 4.3 17:44:54 10° S 17:48:16 28° ESE 17:49:14 25° E
Cosmos 2082 3.6 17:45:25 10° NNW 17:51:04 84° ENE 17:56:42 10° SSE
ERS-2 2.1 17:51:01 10° SSE 17:54:35 54° ENE 17:58:11 10° N
Landsat 4 4.3 17:51:27 10° N 17:55:12 56° WNW 17:58:56 10° SSW
ISS -3.3 17:52:20 10° NW 17:55:35 58° SW 17:58:47 10° SE
Cosmos 2266 Rocket 4.1 17:51:17 10° N 17:57:23 77° W 18:03:34 10° S
SPOT 3 Rocket 3.6 17:52:43 10° SSE 17:57:46 56° ENE 18:02:49 10° N
Fregat R/B Cluster 11 4.5 17:54:52 10° S 17:59:49 37° ESE 18:00:32 33° E
EP 2 4.1 17:57:19 10° SSW 18:00:07 73° ESE 18:00:16 69° E
Cosmos 2227 Rocket 2.8 17:57:13 10° NNW 18:02:46 59° WSW 18:08:16 10° S
CENTAUR R/B 3.9 17:56:16 10° N 18:02:47 27° NE 18:04:35 25° ENE
NOSS 2-2 (E) 3.4 18:00:12 10° SSW 18:03:57 53° ESE 18:05:01 40° ENE
Cosmos 1892 Rocket 4.3 18:03:21 10° SSE 18:06:53 32° ESE 18:06:53 32° ESE
YAOGAN 1 3.4 18:03:11 10° S 18:07:23 52° W 18:11:37 10° NNW
NOSS 2-2 (C) 3.4 18:06:53 10° SSW 18:10:38 53° ESE 18:11:09 49° E
MOS 1 4.3 18:05:11 10° SSE 18:10:52 86° WSW 18:16:35 10° NNW
Delta 2 Rocket 4.4 18:07:13 10° W 18:12:41 57° SSW 18:15:48 22° SE
Thor Agena Rocket 4.0 18:12:21 36° ENE 18:13:24 40° E 18:18:19 10° S
S3M 4.2 18:08:47 10° SSE 18:14:32 44° E 18:17:05 29° NE
Cosmos 1980 Rocket 2.1 18:10:03 10° SSW 18:15:42 90° WSW 18:19:35 21° NNE
Cosmos 1066 Rocket 4.1 18:11:26 10° S 18:16:53 58° E 18:19:39 28° NNE
Cosmos 494 Rocket 4.1 18:15:26 10° N 18:20:33 51° ENE 18:23:05 28° SE
Cosmos 1269 Rocket 4.5 18:17:33 10° NNW 18:22:47 62° WSW 18:27:58 10° S
COSMO-SKYMED 1 4.3 18:23:35 10° N 18:27:24 31° WNW 18:31:14 10° SW
Cosmos 2297 Rocket 3.5 18:24:02 10° NW 18:29:15 40° WSW 18:34:29 10° S
SJ 16-02 4.1 18:27:14 10° WSW 18:29:51 15° WNW 18:32:29 10° NNW
Atlas Centaur 2 3.3 18:27:06 10° W 18:31:26 27° SSW 18:33:25 20° SSE
Cosmos 1184 Rocket 4.0 18:28:56 10° SSW 18:31:00 36° SSW 18:31:00 36° SSW
Cosmos 1244 Rocket 4.4 18:26:03 10° N 18:32:14 88° E 18:38:25 10° S
Shenzhou-11 Module 4.4 18:30:01 10° SSW 18:31:01 17° SSW 18:31:01 17° SSW
Lacrosse 5 rocket 3.0 18:31:24 10° S 18:33:24 24° SSE 18:33:24 24° SSE
Cosmos 2344 3.7 18:32:12 10° S 18:39:33 47° ESE 18:40:34 45° E
RESURS DK-1 2.9 18:40:18 10° SW 18:44:19 55° WNW 18:44:19 55° WNW
Cosmos 1553 Rocket 4.0 18:41:33 10° S 18:47:57 84° W 18:52:38 20° N
ALOS 3.9 18:48:22 10° SSW 18:52:34 33° W 18:56:48 10° NNW
SL-08 R/B 4.3 18:47:46 10° N 18:54:04 85° E 19:00:14 10° S
SL-16 R/B 2.7 18:51:25 10° S 18:55:26 45° SSE 18:55:26 45° SSE
GOES 2 Rocket 4.5 18:54:32 10° WSW 18:58:45 35° S 18:58:50 35° S
DELTA 2 R/B (1) 4.0 18:56:15 10° WNW 19:00:47 55° NW 19:00:47 55° NW
Cosmos 2322 Rocket 2.9 18:56:32 10° S 19:00:14 42° S 19:00:14 42° S
Hubble Space Telescope 3.4 19:04:32 10° SW 19:06:32 14° SSW 19:06:32 14° SSW
NOSS 3-2 (C) 4.4 18:59:34 10° NW 19:07:17 65° WSW 19:15:29 10° SSE
CENTAUR R/B 3.7 19:46:05 10° NW 19:51:51 51° NW 19:51:51 51° NW
